Location: Monteux
(44.0348°N, 4.9972°E)
Time: 16:53:05
(UTC+00:00)

USA 215 - Pass Details

Date: 30 November 2020
Orbit: 1098 x 1110 km, 123.0° (Epoch: 14 January)

Event Time Altitude Azimuth Distance (km) Brightness Sun altitude
Exits shadow 19:31:02 51° 315° (NW) 1,374 3.8 -36.7°
Drops below altitude 10° 19:36:48 10° 258° (WSW) 2,971 6.2 -37.7°
Sets 19:39:20 0° 254° (WSW) 3,928 7.0 -38.2°
